This is the latest recevied weather packets stored in our database for station/object KD2PO-13. If no packets are shown the sender has not sent any weather packets the latest 10 day(s).
| Time | Temp. | Humidity | Pressure | Rain* | Wind** | Luminosity | Snow |
|---|---|---|---|---|---|---|---|
| 1777843645 | 11.67° C | 46% | 0 hPa | 0 mm | - | - | - |
| 1777843345 | 11.67° C | 48% | 0 hPa | 0 mm | - | - | - |
| 1777843045 | 11.67° C | 46% | 0 hPa | 0 mm | - | - | - |
| 1777842745 | 11.67° C | 47% | 0 hPa | 0 mm | - | - | - |
| 1777842445 | 11.67° C | 48% | 0 hPa | 0 mm | - | - | - |
| 1777842146 | 11.11° C | 47% | 0 hPa | 0 mm | - | - | - |
| 1777841846 | 11.67° C | 47% | 0 hPa | 0 mm | - | - | - |
| 1777841545 | 11.67° C | 47% | 0 hPa | 0 mm | - | - | - |
| 1777841245 | 12.22° C | 45% | 0 hPa | 0 mm | - | - | - |
| 1777840946 | 11.67° C | 48% | 0 hPa | 0 mm | - | - | - |
| 1777840645 | 11.67° C | 47% | 0 hPa | 0 mm | - | - | - |
| 1777840045 | 11.11° C | 46% | 0 hPa | 0 mm | - | - | - |
| 1777839445 | 10.56° C | 49% | 0 hPa | 0 mm | - | - | - |
| 1777838845 | 11.11° C | 48% | 0 hPa | 0 mm | - | - | - |
| 1777838545 | 11.11° C | 46% | 0 hPa | 0 mm | - | - | - |
| 1777837945 | 11.11° C | 48% | 0 hPa | 0 mm | - | - | - |
| 1777837644 | 11.11° C | 49% | 0 hPa | 0 mm | - | - | - |
| 1777837345 | 11.11° C | 45% | 0 hPa | 0 mm | - | - | - |
| 1777836745 | 11.11° C | 45% | 0 hPa | 0 mm | - | - | - |
| 1777836445 | 10.56° C | 47% | 0 hPa | 0 mm | - | - | - |
| 1777836145 | 10.56° C | 47% | 0 hPa | 0 mm | - | - | - |
| 1777835845 | 11.11° C | 45% | 0 hPa | 0 mm | - | - | - |
| 1777835545 | 11.11° C | 45% | 0 hPa | 0 mm | - | - | - |
| 1777835245 | 11.11° C | 48% | 0 hPa | 0 mm | - | - | - |
| 1777834645 | 10.56° C | 48% | 0 hPa | 0 mm | - | - | - |
* Rain latest hour (hover to see other rain measurements)
** Current wind speed in m/s (hover to see current wind gust speed)